Torna al catalogo

COSMOS 1823 DEB

AttivoLEO
NORAD 26982·DEBRIS·🇷🇺 Russia

Lanciato Feb 20, 1987 da Plesetsk Cosmodrome

Loading…

Prossimi Passaggi (prossime 24 ore)

TLE

AggiornatoSource: Space-Track

Epoca: Sep 13, 2026, 11:24 UTC

1 26982U 87020DU  26256.47546344  .00000048  00000-0  47490-3 0  9991
2 26982  73.5980 266.7950 0026147 106.0675  48.1635 12.42699193204011

Traccia COSMOS 1823 DEB in tempo reale con AllMySat

Download on the App Store